{"data":{"norad_id":59905,"intl_designator":"2024-100W","name":"STARLINK-31898","alt_names":[],"object_type":"PAYLOAD","status":"ACTIVE","operator":null,"country":"US","launch_date":"2024-05-28","launch_site_code":"AFETR","launch_vehicle":null,"mission":null,"orbit_class":"UNKNOWN","rcs_meters":null,"size_class":null,"mass_kg":null,"dimensions":null,"purposes":["comms"],"wikipedia_slug":null,"has_3d_model":false,"image_url":null,"decayed_at":null,"tle_current":{"epoch":"2026-05-25T02:33:53.998272Z","epoch_age_seconds":59797,"freshness":"FRESH","line1":"1 59905U 24100W   26145.10687498  .00000367  00000+0  22846-4 0  9997","line2":"2 59905  43.0025  50.3973 0000829 267.8751  92.2005 15.27590344112873","mean_motion":15.27590344,"eccentricity":8.29e-5,"inclination_deg":43.0025,"raan_deg":50.3973,"arg_perigee_deg":267.8751,"mean_anomaly_deg":92.2005,"bstar":2.2846e-5,"rev_number":11287,"period_min":94.266110391177,"perigee_km":482.44933279754,"apogee_km":483.58691231686,"semimajor_km":6861.1551225572,"source":"CELESTRAK","updated_at":"2026-05-25T13:38:19.120559Z"}}}